Flag for Greece Weather past 2 weeks in Corfu, Greece

Now
95 °F

Sunny.


Feels Like: 105 °F
Forecast: 79 / 98 °F
Wind: 5 mph from Southeast

Location: Kerkyra Airport

Current Time: Jul 31, 2015 at 3:32:20 PM

Latest Report: Jul 31, 2015 at 2:50 PM


Visibility: 10 mi

Pressure: 29.74 "Hg

Humidity: 50%

Dew point: 73 °F

Location of CorfuLocation

Historic Weather in Corfu — Graph

°F

Corfu temperature yesterday

Maximum temperature yesterday: 97 °F (at 3:50 PM)
Minimum temperature yesterday: 75 °F (at 6:50 AM)
Average temperature yesterday: 87 °F

Past Weeks' High & Low Weather Summary

 TemperatureHumidityPressure
High102 °F (Jul 21, 4:50 PM)94% (Jul 17, 4:50 AM)30.01 "Hg (Jul 17, 4:50 AM)
Low72 °F (Jul 17, 4:50 AM)27% (Jul 23, 1:20 PM)29.71 "Hg (Jul 27, 4:50 PM)
Average86 °F64%29.81 "Hg
* Reported Jul 16 2:20 PM — Jul 31 2:20 PM, Corfu, Weather by CustomWeather, © 2015

Note: Actual official high and low records may vary slightly from our data, if they occured in-between our weather recording intervals... More about our weather records

Advertising

Corfu weather history for previous 24 hours

 ConditionsComfort  
Time TempWeatherWind HumidityBarometerVisibility
2:20 PM
Fri, Jul 31
97 °FSunny.6 mph50%29.74 "Hg10 mi
1:50 PM95 °FSunny.5 mph56%29.74 "Hg10 mi
12:50 PM93 °FSunny.7 mph63%29.74 "Hg10 mi
12:20 PM93 °FSunny.5 mph56%29.74 "Hg10 mi
11:50 AM91 °FSunny.5 mph59%29.74 "Hg10 mi
11:20 AM91 °FSunny.7 mph56%29.74 "Hg10 mi
10:50 AM90 °FSunny.6 mph55%29.74 "Hg10 mi
10:20 AM88 °FSunny.No wind75%29.74 "Hg10 mi
9:50 AM86 °FSunny.No wind75%29.74 "Hg10 mi
9:20 AM81 °FSunny.No wind74%29.74 "Hg10 mi
8:50 AM79 °FSunny.No wind79%29.74 "Hg10 mi
8:20 AM75 °FSunny.No wind89%29.74 "Hg10 mi
5:50 AM73 °FClear.3 mph89%29.74 "Hg10 mi
5:20 AM75 °FClear.No wind83%29.71 "Hg10 mi
4:50 AM75 °FClear.No wind83%29.71 "Hg10 mi
4:20 AM75 °FClear.No wind89%29.74 "Hg10 mi
3:50 AM75 °FClear.No wind89%29.74 "Hg10 mi
3:20 AM77 °FClear.3 mph83%29.74 "Hg10 mi
2:50 AM77 °FClear.3 mph83%29.74 "Hg10 mi
2:20 AM79 °FClear.3 mph79%29.74 "Hg10 mi
1:50 AM79 °FClear.No wind79%29.74 "Hg10 mi
1:20 AM79 °FClear.No wind84%29.74 "Hg10 mi
12:50 AM81 °FClear.No wind84%29.74 "Hg10 mi
12:20 AM82 °FClear.No wind79%29.74 "Hg10 mi
11:50 PM
Thu, Jul 30
82 °FClear.No wind79%29.74 "Hg10 mi
11:20 PM82 °FClear.3 mph74%29.74 "Hg10 mi
10:50 PM84 °FClear.3 mph74%29.74 "Hg10 mi
10:20 PM84 °FClear.3 mph74%29.71 "Hg10 mi
9:50 PM84 °FSunny.6 mph74%29.71 "Hg10 mi
9:20 PM86 °FSunny.7 mph55%29.71 "Hg10 mi
8:50 PM91 °FSunny.6 mph49%29.71 "Hg10 mi
8:20 PM95 °FSunny.5 mph41%29.71 "Hg10 mi
7:50 PM95 °FSunny.9 mph41%29.71 "Hg10 mi
7:20 PM97 °FSunny.10 mph42%29.71 "Hg10 mi
6:50 PM97 °FSunny.7 mph42%29.71 "Hg10 mi
6:20 PM95 °FSunny.7 mph53%29.71 "Hg10 mi
5:50 PM95 °FSunny.5 mph53%29.71 "Hg10 mi
5:20 PM97 °FPassing clouds.7 mph50%29.71 "HgN/A
4:50 PM97 °FSunny.8 mph50%29.71 "Hg10 mi
4:20 PM97 °FPassing clouds.10 mph50%29.74 "HgN/A
3:50 PM97 °FPassing clouds.7 mph50%29.74 "HgN/A
3:20 PM95 °FPassing clouds.5 mph53%29.74 "HgN/A
Weather by CustomWeather, © 2015

See weather overviewHow to use our weather pages